Back to catalog

FENGYUN 1C DEB

AliveSSO
NORAD 31285·DEBRIS·🇨🇳 China

Launched May 10, 1999 from Taiyuan Satellite Launch Center

Loading…

Next Passes (next 24 hours)

TLE

FreshSource: Space-Track

Epoch: Sep 13, 2026, 04:19 UTC

1 31285U 99025BNT 26256.18045434  .00000350  00000-0  13287-3 0  9996
2 31285  98.5491 234.8267 0200205 103.5862 319.6704 14.26387929 11950

Track FENGYUN 1C DEB in real time with AllMySat

Download on the App Store